RH
52 68 75 91 94 92 96 97 97 96 98 99 98 98 96 95 94 90 87 80 78 75 88 86 86 78 90 62 62 70 63 61
53 74 80 95 95 94 94 98 97 96 96 98 98 98 98 96 94 87 85 82 78 77 81 90 94 88 86 69 70 69 73 66
58 85 85 95 94 92 93 94 95 93 91 87 89 94 94 90 87 85 79 76 76 74 76 82 91 94 92 87 77 85 80 74
60 81 89 94 96 93 91 87 93 89 88 87 89 87 93 94 90 84 76 74 75 71 72 78 83 82 84 83 80 75 83 80
57 71 90 91 89 88 88 87 88 85 87 87 92 94 95 86 86 78 75 80 79 74 75 81 77 72 76 88 85 81 88 89
58 64 82 83 83 89 91 88 86 83 86 84 88 90 85 81 77 78 82 80 77 72 77 80 86 89 91 91 91 89 91 93
52 60 69 81 85 79 85 87 85 84 86 84 84 84 84 82 79 77 82 80 85 76 84 84 86 91 92 89 93 90 94 91
53 62 69 80 83 78 84 82 90 83 86 84 80 81 81 76 70 70 76 84 94 90 89 90 90 83 92 88 88 90 95 94
51 55 63 79 82 79 77 83 84 82 83 82 78 75 79 78 72 66 68 77 80 82 80 86 86 90 85 91 94 91 92 96
49 51 56 76 84 85 87 82 72 83 82 83 80 80 76 78 72 67 67 72 74 80 84 81 84 81 85 88 86 87 84 89
47 48 52 68 76 84 85 86 84 83 85 83 79 78 76 73 75 71 67 64 71 77 81 81 80 78 78 80 81 81 85 84
45 46 48 54 70 77 81 86 84 87 88 86 81 79 79 74 74 78 74 68 67 73 76 80 79 77 72 73 72 76 78 76
42 44 47 52 57 69 74 75 81 82 85 86 86 81 78 79 74 72 77 78 71 74 76 74 78 78 74 72 70 63 73 73
45 47 47 50 52 60 65 68 67 73 80 84 87 85 79 75 77 73 72 72 79 76 74 77 74 74 73 72 71 71 69 73
41 51 48 48 51 56 60 65 65 64 76 78 85 86 84 77 71 77 75 77 73 77 76 75 76 74 70 68 67 70 70 72
43 42 42 46 59 56 52 59 63 61 61 71 79 82 81 81 80 81 79 78 76 74 75 75 73 70 68 71 68 71 72 73
50 51 57 60 60 71 68 61 60 60 60 59 62 73 79 82 81 81 80 79 76 75 75 75 76 70 76 83 76 70 68 71
59 63 63 65 66 65 68 69 72 76 62 58 58 63 71 76 78 78 78 80 79 78 76 75 74 74 85 85 87 71 74 74
67 71 74 74 74 72 71 73 74 79 81 78 74 73 64 67 72 74 77 78 81 79 79 77 75 72 87 88 88 77 71 71
Wind_Speed
15 15 13 12 13 11 9 6 5 6 6 5 6 7 9 9 9 9 11 9 12 11 6 8 8 8 5 7 9 4 6 7
16 15 14 14 13 11 10 10 8 6 5 6 7 6 7 9 9 12 12 10 11 11 7 6 4 8 6 10 5 7 3 5
16 16 12 11 14 11 11 10 10 7 5 5 4 6 4 8 10 12 12 12 10 8 9 8 6 4 3 5 6 4 3 5
17 17 16 13 14 13 11 11 10 9 10 6 6 7 6 5 9 10 11 12 9 10 11 10 11 10 9 7 6 7 5 2
17 16 16 15 13 12 12 12 11 9 12 9 12 7 9 7 7 9 10 10 6 6 8 8 12 12 10 6 5 4 5 5
20 19 18 16 14 13 12 13 13 11 10 12 10 9 9 9 8 11 8 7 9 9 9 9 7 5 6 7 6 6 3 4
18 16 17 16 14 14 14 14 13 13 12 14 14 14 11 11 11 10 7 6 5 8 7 8 7 5 7 7 6 7 5 4
18 20 17 17 17 16 14 16 14 14 13 14 14 14 15 15 14 11 11 7 3 6 6 8 7 8 6 9 9 8 7 5
20 20 18 19 18 17 15 16 16 15 15 14 14 15 10 10 12 10 10 9 8 7 7 8 8 7 8 6 6 6 8 7
20 18 17 19 18 17 16 14 17 15 15 13 12 11 14 13 15 12 9 8 7 7 6 8 8 8 7 7 7 9 9 10
17 17 17 17 17 16 15 15 15 13 13 13 12 12 12 10 13 16 15 14 11 10 9 10 10 10 10 10 7 7 10 9
16 16 16 17 17 17 16 15 16 14 14 13 13 13 13 13 12 14 15 15 15 15 16 14 15 15 14 13 13 12 13 13
12 16 16 15 16 16 17 16 16 15 14 14 14 13 14 14 13 14 14 14 16 16 15 17 16 16 16 18 18 16 16 17
9 12 13 13 14 15 15 15 14 12 16 15 14 15 17 16 15 15 15 17 14 16 17 17 18 18 18 18 17 17 18 18
10 7 6 15 14 15 15 15 15 13 17 17 17 16 16 17 16 15 16 14 17 16 16 16 17 18 19 19 19 20 20 18
17 14 13 15 3 6 13 15 16 16 15 17 18 16 16 15 17 16 14 15 16 17 17 17 18 18 15 20 20 19 19 19
16 17 18 16 15 10 10 6 11 15 15 15 13 15 17 17 16 17 17 17 17 16 17 18 18 15 19 20 18 17 18 19
15 16 16 15 14 11 10 8 9 5 12 13 13 13 15 17 17 18 18 18 16 18 18 16 18 18 17 19 20 17 16 18
14 14 15 15 15 17 13 13 13 14 14 12 8 7 11 12 15 17 17 15 17 17 17 18 16 15 14 17 18 17 18 18
Wind_Direction
150 142 138 124 130 137 146 147 128 120 103 120 114 128 148 141 150 156 147 164 164 164 175 169 167 175 167 166 165 148 161 164
145 130 134 123 133 147 154 145 153 133 128 129 132 141 146 143 154 162 170 172 169 172 178 148 136 161 175 165 155 153 146 153
139 136 139 137 148 157 156 149 160 154 153 140 130 135 135 153 167 168 174 177 183 177 169 160 155 131 132 196 145 134 142 152
152 148 149 143 149 164 162 158 169 160 153 142 128 142 133 151 165 166 182 184 197 184 168 163 164 164 191 192 150 145 148 152
154 150 154 155 156 165 163 163 170 165 159 157 159 161 159 174 163 171 181 194 193 163 153 156 166 174 176 168 154 153 141 154
162 164 158 158 154 163 170 166 169 175 164 165 161 156 173 170 174 174 188 193 197 188 174 163 164 159 161 156 158 148 147 144
157 155 151 153 157 161 165 170 173 178 170 166 171 171 170 172 181 183 188 196 193 191 167 171 175 170 166 174 167 171 154 163
153 155 160 156 164 165 169 171 175 179 174 175 177 177 177 178 182 186 182 187 175 184 163 173 173 185 181 177 177 183 155 148
161 162 160 159 165 170 177 177 177 179 179 183 185 182 181 183 188 189 193 194 194 192 181 168 174 172 197 178 174 170 165 166
162 161 160 160 163 173 177 185 186 178 183 182 186 177 180 187 187 194 199 198 198 197 189 183 183 186 188 186 183 179 183 186
158 162 162 162 163 167 175 178 187 184 183 187 190 186 188 193 187 194 197 200 196 193 192 196 201 204 200 198 196 191 192 197
160 166 164 159 163 166 174 178 183 185 187 187 191 195 197 205 193 193 199 203 200 194 195 194 198 204 207 209 213 206 208 212
160 160 158 159 164 166 174 178 185 188 188 188 196 197 200 202 200 196 197 202 204 199 199 205 204 205 206 208 213 213 213 217
131 144 158 162 169 172 175 180 183 175 185 189 195 203 208 210 208 207 205 208 202 206 207 207 210 213 216 216 216 218 222 220
55 59 171 170 172 172 179 184 186 184 180 191 196 200 204 212 215 216 210 206 210 206 208 209 212 216 220 222 220 221 223 226
46 48 42 33 349 192 183 184 185 189 192 188 198 198 197 202 209 213 214 213 214 218 218 220 220 220 218 219 220 222 225 229
40 46 45 40 33 21 16 312 210 189 199 205 191 188 194 199 202 207 212 217 219 219 220 221 223 226 225 216 221 225 227 228
45 44 43 30 21 11 11 353 12 289 225 207 204 193 194 195 197 203 211 213 212 220 226 224 227 229 218 215 213 227 230 232
53 41 34 29 17 16 23 32 27 28 30 20 350 314 233 204 197 207 210 207 212 217 219 223 227 235 211 215 210 222 231 234